Lihue, HI

9:50 PM HST on June 22, 2017 (GMT -1000)
Lihue

Weather History for PHLI - February, 2012

Change the Weather History Date:

Wednesday, February 29, 2012

  Actual Average Record
Temperature  
Mean Temperature 73 °F 72 °F  
Max Temperature 77 °F 78 °F 81 °F (2004)
Min Temperature 69 °F 66 °F 63 °F (1968)
Degree Days  
Heating Degree Days 0 0  
Month to date heating degree days 0 0  
Since 1 July heating degree days 0 0  
Cooling Degree Days 8 7  
Month to date cooling degree days 230 193  
Year to date cooling degree days 500 402  
Growing Degree Days 22 (Base 50)    
Moisture  
Dew Point 66 °F    
Average Humidity 83    
Maximum Humidity 93    
Minimum Humidity 73    
Precipitation  
Precipitation 0.38 in 0.14 in 1.62 in (1960)
Month to date precipitation 8.62 3.16  
Year to date precipitation 12.80 6.91  
Snow  
Snow 0.00 in - - ()
Month to date snowfall 0.0  
Since 1 July snowfall 0.0  
Snow Depth 0.00 in    
Sea Level Pressure  
Sea Level Pressure 30.07 in    
Wind  
Wind Speed 16 mph (ESE)    
Max Wind Speed 23 mph    
Max Gust Speed 30 mph    
Visibility 7 miles    
Events Rain , Thunderstorm    
T = Trace of Precipitation, MM = Missing Value Source: NWS Daily Summary

Daily Weather History Graph

Daily Weather History Graph

Search for Another Location

Airport or City:

Trip Planner

Search our weather history database for the weather conditions in past years. The results will help you decide how hot, cold, wet, or windy it might be!

Date:

Astronomy

Feb. 29, 2012 Rise Set
Actual Time 6:58 AM HST 6:41 PM HST
Civil Twilight 6:36 AM HST 7:03 PM HST
Nautical Twilight 6:10 AM HST 7:29 PM HST
Astronomical Twilight 5:44 AM HST 7:55 PM HST
Moon 11:53 AM HST (2/29) 12:44 AM HST (2/29)
Length of Visible Light 12h 27m
Length of Day
11h 42m
Waxing Crescent, 49% of the Moon is Illuminated
Feb 29
Waxing Crescent
Feb 29
First Quarter
Mar 7
Full
Mar 14
Last Quarter
Mar 22
New

Hourly Weather History & Observations

Time (HST) Temp. Dew Point Humidity Pressure Visibility Wind Dir Wind Speed Gust Speed Precip Events Conditions
12:53 AM 73.0 °F 66.0 °F 79% 30.07 in 10.0 mi East 19.6 mph - N/A   Mostly Cloudy
1:53 AM 73.0 °F 66.0 °F 79% 30.05 in 9.0 mi East 19.6 mph - N/A   Overcast
2:53 AM 73.0 °F 66.0 °F 79% 30.04 in 9.0 mi East 16.1 mph - N/A   Mostly Cloudy
3:11 AM 73.4 °F 66.2 °F 78% 30.04 in 8.0 mi ESE 16.1 mph - N/A   Mostly Cloudy
3:53 AM 73.0 °F 66.0 °F 79% 30.03 in 8.0 mi East 21.9 mph 26.5 mph 0.00 in Rain Light Rain
4:53 AM 73.0 °F 66.0 °F 79% 30.03 in 9.0 mi East 20.7 mph - 0.00 in   Overcast
5:53 AM 73.0 °F 64.9 °F 76% 30.04 in 10.0 mi ESE 21.9 mph - N/A   Partly Cloudy
6:53 AM 73.0 °F 66.0 °F 79% 30.06 in 9.0 mi ESE 18.4 mph - N/A   Mostly Cloudy
7:06 AM 73.4 °F 66.2 °F 78% 30.06 in 9.0 mi ESE 18.4 mph - N/A   Overcast
7:19 AM 73.4 °F 66.2 °F 78% 30.06 in 9.0 mi East 18.4 mph - N/A   Mostly Cloudy
7:27 AM 73.4 °F 66.2 °F 78% 30.07 in 8.0 mi East 17.3 mph 25.3 mph N/A   Mostly Cloudy
7:34 AM 73.4 °F 66.2 °F 78% 30.07 in 8.0 mi East 18.4 mph - N/A   Scattered Clouds
7:53 AM 73.0 °F 64.9 °F 76% 30.07 in 9.0 mi ESE 17.3 mph - N/A   Mostly Cloudy
8:53 AM 73.9 °F 66.0 °F 76% 30.07 in 7.0 mi ESE 18.4 mph - N/A   Overcast
9:53 AM 73.9 °F 66.0 °F 76% 30.09 in 8.0 mi ESE 13.8 mph - N/A   Overcast
10:00 AM 73.4 °F 66.2 °F 78% 30.10 in 9.0 mi SE 13.8 mph - N/A   Overcast
10:53 AM 75.9 °F 66.0 °F 71% 30.10 in 10.0 mi SE 8.1 mph - N/A   Overcast
11:53 AM 75.0 °F 66.9 °F 76% 30.09 in 10.0 mi East 9.2 mph - N/A   Mostly Cloudy
12:26 PM 69.8 °F 66.2 °F 88% 30.08 in 0.8 mi SSW 13.8 mph 17.3 mph 0.06 in Rain Heavy Rain
12:33 PM 71.6 °F 68.0 °F 88% 30.08 in 1.0 mi South 10.4 mph 17.3 mph 0.19 in Rain Rain
12:40 PM 71.6 °F 69.8 °F 94% 30.08 in 3.0 mi South 6.9 mph - 0.21 in Rain Light Rain
12:53 PM 71.1 °F 69.1 °F 93% 30.07 in 7.0 mi South 5.8 mph - 0.22 in Rain Light Rain
1:02 PM 69.8 °F 66.2 °F 88% 30.08 in 2.5 mi SE 15.0 mph - 0.02 in Rain Rain
1:05 PM 69.8 °F 66.2 °F 88% 30.08 in 1.5 mi SSE 12.7 mph 17.3 mph 0.02 in Rain Heavy Rain
1:09 PM 69.8 °F 66.2 °F 88% 30.08 in 1.2 mi SE 5.8 mph 17.3 mph 0.11 in Rain , Thunderstorm Heavy Thunderstorms and Rain
1:11 PM 69.8 °F 66.2 °F 88% 30.07 in 1.2 mi SE 8.1 mph - 0.15 in Rain , Thunderstorm Light Thunderstorms and Rain
1:16 PM 69.8 °F 66.2 °F 88% 30.07 in 3.0 mi SSE 10.4 mph - 0.15 in Rain , Thunderstorm Light Thunderstorms and Rain
1:39 PM 71.6 °F 66.2 °F 83% 30.06 in 4.0 mi SSE 10.4 mph - 0.16 in Rain Light Rain
1:53 PM 70.0 °F 66.9 °F 90% 30.06 in 7.0 mi SSE 13.8 mph - 0.16 in Rain Light Rain
2:53 PM 72.0 °F 66.0 °F 81% 30.04 in 10.0 mi WSW 4.6 mph - 0.00 in   Overcast
3:53 PM 70.0 °F 66.9 °F 90% 30.04 in 6.0 mi NNE 9.2 mph - 0.00 in   Overcast
4:35 PM 69.8 °F 66.2 °F 88% 30.06 in 8.0 mi ENE 12.7 mph - N/A   Scattered Clouds
4:53 PM 69.1 °F 66.0 °F 90% 30.06 in 5.0 mi ENE 12.7 mph - 0.00 in Rain Light Rain
5:53 PM 69.1 °F 66.9 °F 93% 30.07 in 4.0 mi North 6.9 mph - 0.03 in Rain Light Rain
6:16 PM 68.0 °F 66.2 °F 94% 30.08 in 2.5 mi NNW 8.1 mph - 0.03 in Rain Rain
6:37 PM 68.0 °F 66.2 °F 94% 30.08 in 4.0 mi NW 9.2 mph - 0.08 in Rain Rain
6:53 PM 68.0 °F 66.0 °F 93% 30.08 in 7.0 mi NW 8.1 mph - 0.10 in Rain Light Rain
7:53 PM 68.0 °F 66.0 °F 93% 30.09 in 3.0 mi SW 6.9 mph - 0.16 in Rain Heavy Rain
8:25 PM 71.6 °F 66.2 °F 83% 30.10 in 5.0 mi East 15.0 mph - 0.11 in Rain Rain
8:53 PM 72.0 °F 66.9 °F 84% 30.11 in 9.0 mi East 16.1 mph - 0.12 in Rain Light Rain
9:19 PM 71.6 °F 66.2 °F 83% 30.11 in 9.0 mi East 13.8 mph - 0.00 in   Mostly Cloudy
9:53 PM 72.0 °F 66.0 °F 81% 30.10 in 9.0 mi East 13.8 mph - 0.00 in Rain Light Rain
10:10 PM 71.6 °F 66.2 °F 83% 30.10 in 9.0 mi East 15.0 mph - 0.00 in Rain Light Rain
10:18 PM 71.6 °F 66.2 °F 83% 30.10 in 10.0 mi East 15.0 mph - 0.00 in   Mostly Cloudy
10:36 PM 73.4 °F 66.2 °F 78% 30.10 in 10.0 mi East 12.7 mph - 0.00 in   Mostly Cloudy
10:53 PM 73.0 °F 66.0 °F 79% 30.09 in 9.0 mi East 12.7 mph - 0.00 in   Mostly Cloudy
11:18 PM 73.4 °F 66.2 °F 78% 30.10 in 10.0 mi East 15.0 mph - N/A   Scattered Clouds
11:28 PM 73.4 °F 66.2 °F 78% 30.10 in 9.0 mi East 13.8 mph - N/A   Mostly Cloudy
11:53 PM 73.0 °F 66.0 °F 79% 30.10 in 9.0 mi East 13.8 mph - N/A   Mostly Cloudy